Location: 10033 Water Well
(34.0865°N, 106.8959°W)
Time: 16:59:45
(UTC+00:00)

USA 215 - Pass Details

Date: 13 January 2026
Orbit: 1098 x 1109 km, 123.0° (Epoch: 10 January)

Event Time Altitude Azimuth Distance (km) Brightness Sun altitude
Exits shadow 01:20:08 - 37° (NE) 3,061 5.1 -12.6°
Reaches altitude 10° 01:20:24 10° 37° (NE) 2,963 5.0 -12.7°
Maximum altitude 01:26:51 65° 317° (NW) 1,203 3.6 -14.0°
Drops below altitude 10° 01:33:16 10° 237° (WSW) 2,947 6.7 -15.2°
Sets 01:35:45 0° 235° (SW) 3,901 7.5 -15.7°
